CZ-6A R/B

Satellite information

Favourite Embed

Satellite Type and Status

ROCKET BODYIN ORBIT

Key statistics

Satellite CZ-6A R/B at a glance.

Uptime

969

Days in orbit

Revolutions

≈ 14.1

Per day

Orbit

SSO

Sun Synchronous Orbit

Inclination

98.8

Latest

Satellite identification and parameters

Extended collection of information and parameters for CZ-6A R/B.

Object identification

Identified? True

Debris? False

Object name: CZ-6A R/B

International designator: 2022-151B

Object number (NORAD): 54236

Object ID (CCSDS): 54236

Country: PEOPLES REPUBLIC OF CHINA (PRC)

Current information (Y/N): Y

RCS size: LARGE

Orbital parameters

Period: 102.184 minutes

Inclination: 98.8401 deg

SMA: 7240.153 km

Apoapsis: 894.161 km

Periapsis: 829.874 km

RAAN: 189.0196 deg

Eccentricy: 0.0044396

Argument of periapsis: 238.7693 deg

Mean anomaly: 120.9123 deg

Mean motion: 14.09227758 rev/day

Mean motion (dot): 0.0000012 rev/day2

B* drag term: 0.000093642 1/REarth

Two-line elements (TLE)

Creation date: July 5, 2025, 10:56 p.m.

Reference frame: TEME

Reference center: EARTH

Epoch: July 5, 2025, 8:47 p.m. UTC

TLE line 0: 0 CZ-6A R/B

TLE line 1: 1 54236U 22151B 25186.86658454 .00000120 00000-0 93642-4 0 9990

TLE line 2: 2 54236 98.8401 189.0196 0044396 238.7693 120.9123 14.09227758136159

Live tracking on map

Real-time ground track for satellite CZ-6A R/B.

In-orbit conjunctions

A list of the most updated potential collisions computed for object CZ-6A R/B.

Target Orbit TCA Probability of collision Miss distance Type
CZ-6A DEB LEO 2025-05-20 00:16:22 0.001354943 51.0 (m) DEBRIS
CZ-6A DEB LEO 2025-04-30 13:47:01 0.0001122795 817.0 (m) DEBRIS
CZ-6A DEB SSO 2024-11-21 05:02:51 0.0001433951 585.0 (m) DEBRIS
SCOUT G-1 DEB SSO 2024-09-30 19:42:24 0.0001139673 247.0 (m) DEBRIS
CZ-6A DEB SSO 2024-08-16 07:45:03 0.000116067 311.0 (m) DEBRIS

Associated space launch

Chinese satellite reported for atmospheric/ocean/environmental/spatial parameter research purposes, details TBD.

CZ-6A R/B was lifted into orbit during the mission ‘Long March 6A | Yunhai 3’, on board a Long March 6A space rocket.

The launch took place on Nov. 11, 2022, 10:52 p.m. from Launch Complex 9A.

For more information about the launch, click the button.

Launch to space Long March 6A | Yunhai 3
Long March 6A | Yunhai 3

Agency: N/A

Status: Launch Successful

Launch date: Nov. 11, 2022, 10:52 p.m. UTC

Rocket: Long March 6A

Launch pad: Launch Complex 9A

Location: Taiyuan Satellite Launch Center, People's Republic of China

...

Latest news about this satellite

There are no fresh news available about this satellite. Check back as we update our databases every day.


Newsletter sign-up

Weekly statistics, charts and insights to help you stay on top of the space industry.